QPF
0.04 0.04 0.03 0.02 0.03 0.02 0.03 0.02 0.01 0.01 0.02 0.02 0.01 0.01 0.01 0.01 0.01 0.00 0.00 0.02 0.04 0.08 0.09 0.11 0.10 0.06 0.04 0.03 0.03 0.03 0.03 0.02 0.02 0.02 0.02 0.02 0.02 0.03 0.04 0.05 0.04 0.04 0.08
0.04 0.04 0.03 0.03 0.03 0.02 0.01 0.02 0.02 0.02 0.02 0.02 0.01 0.00 0.00 0.00 0.00 0.00 0.00 0.01 0.03 0.05 0.07 0.07 0.07 0.06 0.07 0.06 0.04 0.04 0.03 0.02 0.03 0.03 0.03 0.03 0.03 0.03 0.04 0.05 0.03 0.04 0.06
0.06 0.05 0.03 0.02 0.03 0.02 0.01 0.02 0.02 0.01 0.02 0.02 0.02 0.01 0.01 0.01 0.01 0.00 0.00 0.00 0.01 0.02 0.03 0.04 0.06 0.07 0.06 0.06 0.06 0.04 0.03 0.03 0.03 0.03 0.03 0.04 0.04 0.05 0.06 0.06 0.04 0.04 0.05
0.03 0.04 0.03 0.02 0.02 0.02 0.01 0.01 0.02 0.02 0.02 0.02 0.01 0.01 0.01 0.01 0.01 0.01 0.00 0.01 0.00 0.00 0.01 0.02 0.03 0.05 0.05 0.05 0.04 0.03 0.02 0.02 0.03 0.04 0.03 0.04 0.05 0.05 0.05 0.04 0.03 0.03 0.03
0.03 0.03 0.02 0.02 0.02 0.02 0.01 0.01 0.01 0.02 0.02 0.02 0.01 0.01 0.01 0.01 0.01 0.01 0.01 0.01 0.00 0.00 0.00 0.00 0.01 0.03 0.04 0.06 0.05 0.03 0.03 0.03 0.03 0.04 0.04 0.04 0.05 0.05 0.06 0.04 0.02 0.01 0.02
0.03 0.04 0.03 0.02 0.01 0.01 0.02 0.03 0.03 0.02 0.01 0.01 0.01 0.01 0.02 0.02 0.01 0.01 0.01 0.01 0.01 0.00 0.00 0.00 0.00 0.01 0.02 0.04 0.04 0.05 0.04 0.04 0.04 0.05 0.06 0.07 0.07 0.06 0.05 0.05 0.02 0.01 0.01
0.03 0.02 0.02 0.02 0.02 0.02 0.02 0.02 0.01 0.01 0.01 0.01 0.01 0.01 0.01 0.01 0.01 0.00 0.01 0.01 0.00 0.00 0.01 0.00 0.00 0.00 0.01 0.01 0.02 0.04 0.05 0.05 0.07 0.09 0.10 0.08 0.05 0.05 0.05 0.04 0.02 0.02 0.02
0.02 0.02 0.02 0.02 0.03 0.02 0.01 0.01 0.01 0.01 0.01 0.01 0.01 0.01 0.01 0.00 0.01 0.01 0.01 0.01 0.01 0.01 0.01 0.00 0.00 0.00 0.00 0.01 0.02 0.03 0.05 0.08 0.10 0.09 0.07 0.05 0.03 0.03 0.04 0.04 0.03 0.03 0.03
0.03 0.03 0.04 0.03 0.03 0.03 0.02 0.02 0.02 0.02 0.02 0.02 0.02 0.01 0.01 0.01 0.00 0.01 0.01 0.01 0.00 0.00 0.00 0.01 0.01 0.00 0.01 0.01 0.02 0.02 0.03 0.03 0.04 0.05 0.06 0.06 0.04 0.03 0.03 0.03 0.03 0.02 0.02
0.03 0.03 0.04 0.03 0.03 0.03 0.01 0.01 0.01 0.01 0.02 0.02 0.01 0.01 0.02 0.01 0.00 0.00 0.00 0.01 0.01 0.01 0.00 0.00 0.01 0.01 0.00 0.00 0.01 0.02 0.02 0.02 0.02 0.04 0.05 0.07 0.06 0.05 0.04 0.04 0.04 0.02 0.02
0.02 0.02 0.03 0.03 0.03 0.03 0.01 0.01 0.01 0.01 0.01 0.01 0.01 0.01 0.01 0.00 0.00 0.00 0.00 0.01 0.01 0.01 0.00 0.01 0.01 0.00 0.00 0.00 0.01 0.01 0.02 0.03 0.03 0.04 0.06 0.07 0.09 0.08 0.06 0.05 0.05 0.04 0.04
0.04 0.02 0.02 0.02 0.03 0.03 0.02 0.01 0.01 0.01 0.01 0.02 0.01 0.01 0.01 0.01 0.01 0.01 0.01 0.00 0.00 0.01 0.00 0.01 0.01 0.01 0.01 0.01 0.02 0.02 0.03 0.03 0.03 0.02 0.04 0.06 0.08 0.09 0.09 0.07 0.05 0.04 0.05
0.04 0.03 0.03 0.03 0.02 0.03 0.03 0.02 0.02 0.02 0.02 0.03 0.02 0.02 0.02 0.02 0.02 0.02 0.02 0.01 0.01 0.01 0.01 0.01 0.02 0.03 0.02 0.01 0.01 0.02 0.03 0.02 0.02 0.01 0.02 0.03 0.06 0.07 0.08 0.06 0.04 0.04 0.04
0.03 0.03 0.03 0.03 0.03 0.03 0.05 0.04 0.03 0.02 0.03 0.02 0.02 0.04 0.04 0.04 0.03 0.03 0.02 0.02 0.01 0.01 0.02 0.02 0.02 0.02 0.02 0.02 0.01 0.02 0.03 0.03 0.02 0.02 0.02 0.06 0.08 0.09 0.07 0.04 0.03 0.03 0.03
0.02 0.02 0.03 0.04 0.04 0.05 0.05 0.05 0.04 0.02 0.02 0.02 0.03 0.03 0.03 0.03 0.03 0.03 0.03 0.02 0.02 0.02 0.02 0.03 0.03 0.02 0.02 0.01 0.01 0.02 0.03 0.04 0.03 0.04 0.03 0.04 0.06 0.05 0.04 0.03 0.03 0.03 0.03
0.02 0.02 0.03 0.03 0.05 0.04 0.04 0.03 0.04 0.03 0.03 0.02 0.03 0.02 0.02 0.02 0.02 0.02 0.03 0.02 0.02 0.03 0.03 0.03 0.03 0.04 0.05 0.04 0.03 0.02 0.03 0.04 0.03 0.03 0.02 0.03 0.03 0.02 0.02 0.02 0.01 0.01 0.01
0.03 0.03 0.03 0.03 0.04 0.04 0.04 0.05 0.05 0.04 0.04 0.03 0.03 0.02 0.02 0.01 0.01 0.01 0.02 0.02 0.02 0.04 0.06 0.04 0.02 0.03 0.07 0.06 0.03 0.02 0.02 0.03 0.02 0.01 0.01 0.01 0.02 0.02 0.02 0.01 0.01 0.00 0.00
0.04 0.04 0.03 0.03 0.04 0.05 0.06 0.07 0.06 0.05 0.05 0.05 0.04 0.03 0.02 0.01 0.01 0.01 0.01 0.02 0.02 0.03 0.06 0.05 0.03 0.03 0.03 0.03 0.02 0.01 0.01 0.02 0.01 0.01 0.01 0.01 0.01 0.01 0.01 0.01 0.01 0.01 0.01
0.05 0.04 0.03 0.04 0.04 0.05 0.06 0.07 0.06 0.08 0.08 0.05 0.03 0.02 0.01 0.01 0.01 0.01 0.01 0.01 0.02 0.02 0.03 0.06 0.04 0.03 0.02 0.01 0.01 0.02 0.02 0.03 0.02 0.02 0.02 0.01 0.02 0.02 0.02 0.01 0.02 0.02 0.01
0.04 0.04 0.04 0.04 0.04 0.06 0.08 0.06 0.05 0.05 0.05 0.03 0.02 0.01 0.01 0.00 0.00 0.00 0.00 0.01 0.01 0.01 0.02 0.04 0.07 0.06 0.05 0.03 0.02 0.01 0.02 0.02 0.02 0.01 0.01 0.01 0.02 0.02 0.02 0.02 0.01 0.01 0.01
0.04 0.05 0.07 0.07 0.07 0.08 0.07 0.06 0.05 0.03 0.02 0.02 0.01 0.01 0.01 0.01 0.01 0.01 0.01 0.01 0.01 0.01 0.01 0.02 0.03 0.04 0.03 0.02 0.01 0.01 0.01 0.01 0.01 0.01 0.00 0.01 0.01 0.01 0.01 0.01 0.01 0.01 0.01
0.06 0.06 0.06 0.06 0.07 0.06 0.06 0.06 0.05 0.04 0.03 0.02 0.02 0.01 0.01 0.01 0.01 0.01 0.01 0.01 0.01 0.01 0.01 0.01 0.01 0.01 0.01 0.01 0.01 0.01 0.01 0.01 0.01 0.00 0.00 0.00 0.00 0.00 0.01 0.01 0.01 0.01 0.01
0.08 0.07 0.06 0.05 0.05 0.04 0.05 0.05 0.05 0.04 0.03 0.02 0.02 0.02 0.02 0.02 0.01 0.01 0.01 0.01 0.01 0.01 0.01 0.01 0.00 0.00 0.01 0.01 0.00 0.00 0.00 0.01 0.01 0.01 0.01 0.01 0.01 0.00 0.00 0.00 0.01 0.01 0.00
0.07 0.06 0.05 0.04 0.03 0.03 0.04 0.04 0.04 0.04 0.04 0.03 0.03 0.03 0.02 0.02 0.02 0.02 0.02 0.01 0.01 0.01 0.01 0.00 0.00 0.00 0.00 0.00 0.00 0.00 0.00 0.00 0.00 0.00 0.00 0.01 0.01 0.01 0.00 0.00 0.01 0.01 0.01
0.03 0.04 0.04 0.03 0.02 0.03 0.04 0.04 0.03 0.03 0.03 0.02 0.02 0.02 0.02 0.03 0.02 0.02 0.02 0.01 0.01 0.00 0.01 0.01 0.01 0.01 0.01 0.01 0.01 0.00 0.00 0.00 0.00 0.00 0.00 0.00 0.00 0.01 0.01 0.01 0.01 0.01 0.01
0.04 0.04 0.04 0.04 0.03 0.03 0.04 0.04 0.03 0.02 0.02 0.02 0.02 0.02 0.03 0.03 0.03 0.02 0.02 0.01 0.01 0.01 0.01 0.01 0.01 0.01 0.01 0.01 0.01 0.01 0.00 0.00 0.00 0.00 0.00 0.01 0.01 0.01 0.01 0.00 0.01 0.01 0.01
MSLP
1016.88 1016.77 1016.66 1016.56 1016.49 1016.49 1016.55 1016.68 1016.86 1017.08 1017.29 1017.49 1017.66 1017.79 1017.89 1017.97 1018.05 1018.12 1018.21 1018.31 1018.41 1018.52 1018.62 1018.70 1018.76 1018.80 1018.83 1018.83 1018.80 1018.76 1018.69 1018.60 1018.50 1018.39 1018.28 1018.16 1018.04 1017.91 1017.75 1017.55 1017.30 1017.01 1016.68
1016.82 1016.72 1016.64 1016.59 1016.59 1016.65 1016.77 1016.94 1017.16 1017.40 1017.64 1017.87 1018.07 1018.23 1018.37 1018.48 1018.57 1018.66 1018.75 1018.84 1018.92 1019.00 1019.08 1019.14 1019.20 1019.23 1019.25 1019.24 1019.20 1019.13 1019.04 1018.92 1018.79 1018.65 1018.52 1018.39 1018.27 1018.14 1018.00 1017.81 1017.58 1017.30 1016.98
1016.74 1016.66 1016.63 1016.66 1016.73 1016.87 1017.05 1017.27 1017.53 1017.80 1018.07 1018.32 1018.56 1018.77 1018.95 1019.11 1019.24 1019.35 1019.44 1019.50 1019.56 1019.59 1019.62 1019.64 1019.66 1019.66 1019.65 1019.62 1019.56 1019.47 1019.36 1019.22 1019.06 1018.91 1018.76 1018.62 1018.50 1018.37 1018.23 1018.07 1017.85 1017.59 1017.28
1016.72 1016.67 1016.70 1016.79 1016.95 1017.16 1017.40 1017.67 1017.96 1018.26 1018.55 1018.84 1019.12 1019.38 1019.62 1019.84 1020.02 1020.16 1020.26 1020.31 1020.33 1020.31 1020.28 1020.23 1020.18 1020.13 1020.08 1020.02 1019.93 1019.83 1019.69 1019.54 1019.37 1019.20 1019.04 1018.89 1018.75 1018.61 1018.48 1018.31 1018.11 1017.87 1017.58
1016.81 1016.79 1016.87 1017.03 1017.25 1017.53 1017.82 1018.13 1018.44 1018.75 1019.06 1019.38 1019.70 1020.02 1020.33 1020.62 1020.86 1021.05 1021.17 1021.22 1021.21 1021.15 1021.05 1020.94 1020.82 1020.71 1020.60 1020.49 1020.38 1020.25 1020.11 1019.94 1019.77 1019.58 1019.40 1019.23 1019.07 1018.92 1018.76 1018.58 1018.38 1018.14 1017.87
1017.05 1017.06 1017.18 1017.39 1017.67 1017.97 1018.29 1018.61 1018.93 1019.24 1019.55 1019.89 1020.25 1020.62 1021.01 1021.37 1021.69 1021.94 1022.11 1022.19 1022.17 1022.09 1021.94 1021.77 1021.59 1021.42 1021.26 1021.11 1020.96 1020.81 1020.65 1020.48 1020.29 1020.10 1019.90 1019.70 1019.51 1019.32 1019.13 1018.92 1018.70 1018.46 1018.20
1017.47 1017.50 1017.65 1017.89 1018.18 1018.49 1018.81 1019.11 1019.40 1019.69 1019.99 1020.33 1020.71 1021.13 1021.58 1022.02 1022.43 1022.77 1023.00 1023.13 1023.14 1023.06 1022.91 1022.71 1022.49 1022.27 1022.06 1021.87 1021.70 1021.53 1021.35 1021.17 1020.97 1020.76 1020.55 1020.32 1020.09 1019.86 1019.63 1019.38 1019.13 1018.87 1018.61
1018.08 1018.13 1018.28 1018.51 1018.79 1019.08 1019.36 1019.62 1019.86 1020.10 1020.37 1020.69 1021.08 1021.52 1022.02 1022.53 1023.01 1023.43 1023.75 1023.96 1024.04 1024.00 1023.87 1023.68 1023.45 1023.21 1022.98 1022.77 1022.57 1022.37 1022.18 1021.99 1021.79 1021.57 1021.34 1021.09 1020.83 1020.56 1020.28 1020.00 1019.71 1019.43 1019.15
1018.85 1018.89 1019.03 1019.24 1019.48 1019.72 1019.95 1020.14 1020.32 1020.49 1020.71 1020.99 1021.34 1021.79 1022.30 1022.85 1023.40 1023.89 1024.30 1024.60 1024.77 1024.82 1024.76 1024.61 1024.42 1024.19 1023.96 1023.73 1023.50 1023.29 1023.09 1022.88 1022.67 1022.46 1022.22 1021.97 1021.70 1021.41 1021.10 1020.78 1020.47 1020.15 1019.86
1019.72 1019.76 1019.88 1020.04 1020.24 1020.42 1020.57 1020.70 1020.80 1020.90 1021.05 1021.26 1021.57 1021.97 1022.46 1023.02 1023.59 1024.14 1024.63 1025.02 1025.29 1025.45 1025.49 1025.43 1025.29 1025.11 1024.89 1024.66 1024.43 1024.20 1023.98 1023.77 1023.56 1023.35 1023.13 1022.89 1022.63 1022.34 1022.04 1021.71 1021.38 1021.05 1020.74
1020.63 1020.67 1020.77 1020.90 1021.04 1021.17 1021.26 1021.32 1021.35 1021.38 1021.45 1021.58 1021.81 1022.15 1022.58 1023.10 1023.66 1024.23 1024.77 1025.24 1025.61 1025.88 1026.03 1026.08 1026.04 1025.91 1025.73 1025.52 1025.28 1025.03 1024.80 1024.57 1024.37 1024.17 1023.98 1023.78 1023.56 1023.31 1023.03 1022.73 1022.41 1022.08 1021.75
1021.53 1021.58 1021.66 1021.77 1021.87 1021.96 1022.01 1022.02 1022.00 1021.97 1021.97 1022.03 1022.17 1022.41 1022.75 1023.19 1023.69 1024.24 1024.80 1025.32 1025.78 1026.15 1026.42 1026.59 1026.64 1026.59 1026.45 1026.25 1026.01 1025.75 1025.50 1025.27 1025.06 1024.89 1024.74 1024.59 1024.43 1024.25 1024.02 1023.76 1023.47 1023.15 1022.83
1022.37 1022.43 1022.52 1022.61 1022.71 1022.78 1022.82 1022.81 1022.77 1022.71 1022.66 1022.64 1022.69 1022.83 1023.06 1023.39 1023.81 1024.30 1024.83 1025.37 1025.88 1026.35 1026.72 1027.00 1027.15 1027.17 1027.09 1026.91 1026.66 1026.39 1026.11 1025.86 1025.66 1025.50 1025.39 1025.30 1025.21 1025.10 1024.95 1024.75 1024.50 1024.21 1023.89
1023.11 1023.20 1023.30 1023.42 1023.53 1023.61 1023.67 1023.68 1023.65 1023.59 1023.51 1023.45 1023.42 1023.46 1023.57 1023.78 1024.09 1024.50 1024.98 1025.51 1026.05 1026.57 1027.04 1027.40 1027.64 1027.73 1027.69 1027.53 1027.29 1026.99 1026.69 1026.42 1026.21 1026.06 1025.98 1025.94 1025.91 1025.87 1025.78 1025.64 1025.43 1025.17 1024.86
1023.76 1023.88 1024.01 1024.16 1024.30 1024.43 1024.53 1024.59 1024.60 1024.57 1024.51 1024.43 1024.35 1024.31 1024.33 1024.42 1024.62 1024.93 1025.34 1025.83 1026.38 1026.93 1027.45 1027.89 1028.20 1028.35 1028.35 1028.21 1027.96 1027.64 1027.31 1027.01 1026.77 1026.62 1026.54 1026.53 1026.54 1026.54 1026.50 1026.40 1026.22 1025.98 1025.68
1024.33 1024.48 1024.65 1024.83 1025.01 1025.20 1025.36 1025.49 1025.58 1025.61 1025.59 1025.53 1025.44 1025.35 1025.29 1025.29 1025.39 1025.61 1025.95 1026.39 1026.92 1027.49 1028.04 1028.52 1028.88 1029.08 1029.11 1028.98 1028.73 1028.39 1028.03 1027.69 1027.42 1027.24 1027.15 1027.12 1027.14 1027.15 1027.12 1027.03 1026.87 1026.62 1026.32
1024.84 1025.02 1025.22 1025.44 1025.67 1025.91 1026.14 1026.35 1026.52 1026.63 1026.68 1026.66 1026.59 1026.49 1026.40 1026.35 1026.38 1026.52 1026.79 1027.19 1027.68 1028.24 1028.80 1029.30 1029.69 1029.92 1029.98 1029.86 1029.61 1029.25 1028.86 1028.49 1028.18 1027.96 1027.82 1027.76 1027.74 1027.72 1027.67 1027.55 1027.37 1027.11 1026.79
1025.33 1025.53 1025.75 1026.00 1026.27 1026.55 1026.85 1027.13 1027.37 1027.57 1027.69 1027.74 1027.72 1027.65 1027.55 1027.49 1027.48 1027.57 1027.79 1028.13 1028.59 1029.12 1029.67 1030.17 1030.57 1030.81 1030.89 1030.79 1030.54 1030.18 1029.78 1029.37 1029.03 1028.75 1028.56 1028.44 1028.36 1028.28 1028.17 1028.00 1027.77 1027.47 1027.12
1025.82 1026.04 1026.27 1026.53 1026.82 1027.14 1027.47 1027.80 1028.11 1028.38 1028.57 1028.69 1028.74 1028.71 1028.65 1028.59 1028.58 1028.65 1028.83 1029.13 1029.54 1030.03 1030.54 1031.03 1031.42 1031.67 1031.75 1031.67 1031.43 1031.09 1030.69 1030.28 1029.90 1029.59 1029.34 1029.15 1028.99 1028.84 1028.65 1028.41 1028.12 1027.77 1027.39
1026.33 1026.55 1026.80 1027.06 1027.36 1027.68 1028.03 1028.38 1028.73 1029.05 1029.30 1029.49 1029.60 1029.63 1029.62 1029.59 1029.59 1029.65 1029.80 1030.06 1030.43 1030.86 1031.33 1031.77 1032.14 1032.38 1032.47 1032.41 1032.20 1031.89 1031.51 1031.11 1030.73 1030.40 1030.11 1029.87 1029.64 1029.40 1029.14 1028.82 1028.46 1028.06 1027.64
1026.85 1027.09 1027.33 1027.59 1027.88 1028.19 1028.53 1028.89 1029.25 1029.59 1029.88 1030.11 1030.28 1030.37 1030.40 1030.41 1030.43 1030.49 1030.63 1030.85 1031.16 1031.54 1031.94 1032.33 1032.66 1032.89 1032.98 1032.93 1032.76 1032.49 1032.16 1031.81 1031.45 1031.13 1030.83 1030.55 1030.27 1029.98 1029.64 1029.26 1028.84 1028.39 1027.93
1027.37 1027.62 1027.87 1028.13 1028.40 1028.69 1029.00 1029.33 1029.68 1030.02 1030.32 1030.58 1030.78 1030.92 1031.00 1031.05 1031.09 1031.16 1031.27 1031.46 1031.71 1032.02 1032.35 1032.68 1032.96 1033.16 1033.25 1033.23 1033.10 1032.89 1032.63 1032.33 1032.03 1031.74 1031.46 1031.18 1030.88 1030.55 1030.17 1029.75 1029.28 1028.79 1028.30
1027.86 1028.14 1028.40 1028.64 1028.89 1029.15 1029.43 1029.73 1030.05 1030.36 1030.66 1030.93 1031.15 1031.32 1031.43 1031.51 1031.57 1031.63 1031.73 1031.88 1032.08 1032.32 1032.59 1032.85 1033.08 1033.25 1033.33 1033.33 1033.25 1033.10 1032.91 1032.69 1032.46 1032.23 1031.99 1031.74 1031.45 1031.12 1030.73 1030.28 1029.79 1029.28 1028.77
1028.29 1028.59 1028.86 1029.10 1029.33 1029.56 1029.81 1030.06 1030.34 1030.63 1030.91 1031.17 1031.40 1031.58 1031.72 1031.82 1031.89 1031.96 1032.05 1032.16 1032.31 1032.49 1032.70 1032.90 1033.08 1033.22 1033.30 1033.32 1033.28 1033.19 1033.07 1032.93 1032.78 1032.61 1032.43 1032.22 1031.97 1031.65 1031.28 1030.84 1030.35 1029.83 1029.31
1028.62 1028.94 1029.21 1029.45 1029.67 1029.87 1030.09 1030.31 1030.56 1030.82 1031.08 1031.33 1031.56 1031.75 1031.90 1032.01 1032.10 1032.17 1032.25 1032.34 1032.46 1032.60 1032.76 1032.92 1033.06 1033.18 1033.25 1033.29 1033.28 1033.24 1033.18 1033.10 1033.01 1032.91 1032.78 1032.62 1032.41 1032.13 1031.79 1031.37 1030.90 1030.40 1029.89
1028.81 1029.14 1029.41 1029.64 1029.85 1030.04 1030.23 1030.44 1030.66 1030.90 1031.15 1031.40 1031.62 1031.82 1031.99 1032.12 1032.21 1032.30 1032.38 1032.46 1032.57 1032.69 1032.82 1032.95 1033.08 1033.18 1033.25 1033.29 1033.31 1033.30 1033.27 1033.23 1033.19 1033.13 1033.05 1032.93 1032.76 1032.52 1032.21 1031.84 1031.40 1030.93 1030.43
Thickness
5739 5738 5737 5735 5734 5733 5732 5731 5729 5728 5726 5725 5723 5722 5720 5719 5718 5718 5718 5718 5718 5718 5717 5716 5715 5714 5714 5713 5713 5713 5713 5713 5712 5712 5712 5712 5712 5713 5713 5714 5714 5715 5716
5737 5735 5734 5732 5730 5729 5729 5727 5725 5724 5722 5720 5718 5717 5716 5715 5714 5713 5713 5713 5713 5713 5713 5712 5711 5710 5710 5709 5709 5709 5709 5708 5708 5708 5708 5708 5708 5708 5708 5709 5709 5710 5711
5734 5732 5730 5728 5727 5726 5725 5724 5722 5720 5718 5716 5713 5712 5711 5710 5710 5709 5708 5708 5708 5707 5707 5707 5706 5706 5706 5705 5705 5705 5704 5704 5704 5703 5703 5703 5703 5703 5703 5703 5704 5705 5706
5731 5729 5727 5725 5724 5723 5721 5720 5717 5714 5712 5710 5708 5707 5707 5706 5705 5704 5704 5703 5702 5702 5702 5702 5701 5701 5701 5701 5701 5700 5700 5700 5699 5699 5699 5698 5698 5698 5698 5698 5699 5700 5700
5727 5726 5724 5722 5721 5719 5718 5716 5713 5710 5707 5705 5704 5702 5702 5701 5701 5700 5699 5698 5697 5697 5696 5696 5696 5696 5696 5696 5696 5696 5696 5696 5695 5694 5694 5694 5693 5693 5693 5693 5694 5694 5695
5724 5722 5720 5719 5718 5716 5713 5711 5708 5706 5703 5701 5700 5697 5696 5696 5696 5695 5694 5693 5692 5692 5691 5691 5691 5690 5691 5691 5691 5692 5692 5691 5691 5690 5690 5689 5689 5688 5688 5688 5688 5688 5688
5720 5719 5717 5715 5714 5712 5709 5707 5704 5701 5698 5697 5693 5689 5690 5691 5690 5689 5689 5688 5687 5687 5686 5686 5685 5685 5685 5685 5686 5687 5687 5687 5686 5686 5685 5684 5684 5683 5683 5683 5683 5683 5683
5717 5716 5714 5712 5710 5708 5705 5703 5701 5696 5694 5693 5689 5683 5678 5679 5682 5684 5683 5683 5682 5681 5681 5680 5680 5680 5680 5680 5680 5681 5681 5681 5681 5681 5681 5680 5679 5678 5678 5677 5677 5677 5677
5714 5712 5710 5708 5707 5705 5702 5700 5698 5695 5690 5689 5689 5683 5675 5670 5672 5675 5677 5677 5676 5676 5675 5675 5674 5674 5674 5675 5675 5675 5676 5676 5676 5676 5675 5674 5674 5673 5672 5672 5671 5671 5671
5710 5708 5707 5705 5703 5701 5699 5697 5695 5693 5690 5685 5685 5684 5682 5678 5670 5667 5669 5670 5671 5670 5670 5670 5669 5669 5669 5669 5669 5669 5670 5670 5670 5669 5669 5669 5668 5668 5667 5667 5666 5665 5665
5706 5705 5703 5702 5700 5698 5696 5695 5693 5691 5688 5685 5682 5681 5678 5675 5673 5667 5662 5663 5664 5664 5664 5664 5664 5664 5664 5664 5664 5664 5664 5663 5663 5663 5663 5662 5662 5662 5661 5661 5660 5659 5659
5702 5701 5700 5698 5696 5695 5693 5692 5690 5688 5686 5684 5682 5680 5677 5673 5670 5666 5661 5658 5657 5658 5659 5659 5659 5659 5659 5658 5658 5658 5657 5657 5657 5656 5656 5655 5655 5655 5654 5654 5653 5652 5652
5697 5697 5697 5695 5693 5692 5690 5689 5687 5685 5684 5682 5679 5678 5676 5675 5672 5668 5662 5657 5654 5653 5653 5653 5653 5653 5653 5653 5652 5652 5651 5651 5650 5650 5649 5648 5648 5648 5647 5646 5646 5645 5644
5696 5696 5695 5693 5691 5689 5687 5686 5684 5682 5681 5679 5677 5675 5674 5673 5671 5668 5663 5657 5651 5648 5648 5647 5647 5647 5647 5647 5647 5646 5645 5645 5644 5643 5642 5642 5641 5641 5640 5638 5637 5637 5636
5695 5693 5692 5690 5688 5686 5684 5682 5680 5679 5677 5675 5674 5672 5671 5669 5668 5666 5664 5660 5653 5645 5642 5642 5641 5641 5641 5641 5641 5640 5640 5639 5638 5637 5636 5635 5634 5633 5632 5631 5630 5629 5628
5692 5690 5688 5686 5684 5683 5681 5679 5677 5676 5673 5671 5670 5668 5667 5665 5664 5663 5660 5657 5654 5648 5640 5638 5637 5637 5637 5636 5635 5634 5634 5633 5632 5631 5630 5629 5628 5627 5625 5624 5622 5621 5620
5689 5687 5685 5683 5681 5679 5678 5676 5674 5672 5670 5668 5666 5665 5663 5662 5660 5658 5656 5653 5650 5646 5639 5634 5634 5633 5631 5630 5629 5628 5628 5628 5626 5625 5624 5623 5622 5620 5619 5617 5616 5614 5613
5685 5683 5681 5680 5678 5676 5675 5673 5670 5669 5667 5664 5663 5661 5659 5658 5656 5654 5651 5649 5646 5643 5639 5632 5629 5628 5627 5625 5624 5623 5622 5622 5621 5620 5619 5617 5616 5614 5612 5611 5609 5607 5606
5681 5680 5678 5676 5674 5673 5671 5670 5668 5666 5664 5662 5660 5658 5656 5654 5652 5650 5648 5645 5642 5639 5636 5631 5625 5623 5622 5620 5618 5617 5617 5616 5616 5614 5613 5612 5610 5609 5607 5605 5603 5601 5599
5677 5676 5675 5673 5671 5670 5668 5666 5665 5663 5660 5659 5657 5655 5654 5652 5650 5647 5644 5641 5638 5633 5630 5626 5621 5618 5616 5615 5613 5611 5609 5609 5608 5608 5607 5606 5604 5603 5601 5599 5597 5595 5593
5674 5673 5671 5669 5667 5666 5664 5662 5661 5659 5656 5654 5653 5652 5650 5649 5648 5645 5642 5637 5634 5629 5624 5620 5616 5613 5611 5608 5607 5606 5604 5602 5601 5601 5600 5599 5598 5596 5594 5592 5590 5588 5586
5669 5668 5666 5665 5663 5662 5661 5660 5658 5655 5652 5650 5648 5647 5646 5645 5644 5642 5639 5636 5632 5627 5620 5616 5612 5609 5608 5606 5603 5602 5598 5595 5594 5595 5593 5592 5591 5589 5588 5586 5584 5582 5579
5663 5662 5661 5660 5659 5658 5658 5656 5654 5651 5648 5646 5644 5643 5642 5640 5638 5635 5633 5630 5627 5625 5622 5617 5612 5609 5606 5605 5601 5597 5594 5592 5589 5589 5587 5585 5584 5582 5582 5580 5578 5575 5572
5657 5657 5656 5656 5654 5654 5654 5652 5650 5647 5644 5642 5641 5639 5637 5634 5633 5630 5627 5623 5620 5618 5617 5614 5612 5610 5607 5604 5601 5598 5593 5589 5586 5584 5583 5578 5577 5576 5576 5574 5572 5569 5566
5652 5652 5651 5651 5650 5650 5650 5648 5646 5642 5639 5637 5636 5635 5633 5630 5629 5626 5623 5618 5615 5613 5612 5610 5608 5606 5604 5601 5597 5593 5587 5583 5580 5579 5577 5573 5571 5570 5569 5568 5567 5564 5560
5648 5647 5646 5646 5646 5645 5645 5644 5642 5638 5634 5632 5631 5630 5629 5627 5625 5621 5618 5614 5610 5607 5606 5603 5601 5600 5598 5596 5593 5590 5586 5580 5576 5573 5572 5569 5565 5563 5561 5562 5560 5558 5555